This demonstration page uses our WeatherBlox Daily Observations layout. Learn more.

41.55636, -103.73856

Hourly Observations for August 21, 2019

Temp ( °F °C ) Dew Point ( °F °C ) Humidity (%) Winds ( mph kmh ) Pressure ( in mb ) Visibility ( mi km ) Precip ( " mm )
12:58 am 00:58 Mostly Cloudy 79 26.2 59 15 50 50 ESE 15 24 29.97 1015 10 16.0934 0 0
1:58 am 01:58 Mostly Cloudy 78 25.6 60 15.4 53 53 ESE 15 24 29.98 1015 10 16.0934 0 0
2:58 am 02:58 Mostly Cloudy 76 24.4 61 16 60 60 E 12 19 30.02 1017 10 16.0934 0 0
3:58 am 03:58 Mostly Cloudy with Thunderstorms 74 23.4 62 16.5 65 65 ENE 12 19 30.03 1017 10 16.0934 0 0
4:58 am 04:58 Mostly Cloudy with Thunderstorms 60 15.4 54 12.1 81 81 N 25 41 30.17 1022 6 9.65604 0.13 3.302
5:58 am 05:58 Cloudy with Thunderstorms 57 13.9 56 13.2 96 96 NE 10 17 30.1 1019 10 16.0934 0.74 18.796
6:58 am 06:58 Mostly Cloudy with Light Showers 60 15.6 55 12.5 82 82 E 5 7 30.04 1017 10 16.0934 0.02 0.508
7:58 am 07:58 Mostly Cloudy with Thunderstorms 62 16.8 55 12.7 77 77 S 10 17 30.02 1017 10 16.0934 0.01 0.254
8:58 am 08:58 Mostly Cloudy 62 16.7 54 12.4 76 76 SSE 16 26 30.03 1017 10 16.0934 0 0
9:58 am 09:58 Mostly Cloudy 62 16.6 53 11.9 74 74 SE 13 20 29.98 1015 10 16.0934 0 0
10:58 am 10:58 Clear 59 15.2 53 11.4 78 78 E 10 17 29.99 1016 10 16.0934 0.01 0.254
11:58 am 11:58 Mostly Clear 56 13.6 53 11.4 87 87 Calm 30.05 1018 10 16.0934 0 0
12:58 pm 12:58 Mostly Cloudy 58 14.2 54 12.3 88 88 Calm 30.11 1020 10 16.0934 0 0
1:58 pm 13:58 Partly Cloudy 63 17.1 55 12.5 75 75 Calm 30.12 1020 10 16.0934 0 0
3:59 pm 15:59 Sunny 69 20.3 56 13.1 63 63 Calm 30.11 1020 10 16.0934 0 0
4:58 pm 16:58 Sunny 72 22 55 12.9 56 56 E 5 7 30.13 1020 10 16.0934 0 0
5:58 pm 17:58 Sunny 73 22.9 55 13 54 54 ENE 3 6 30.11 1020 10 16.0934 0 0
6:58 pm 18:58 Sunny 76 24.6 55 12.8 48 48 ESE 9 15 30.07 1018 10 16.0934 0 0
7:58 pm 19:58 Sunny 78 25.8 55 12.5 44 44 SE 7 11 30.05 1018 10 16.0934 0 0
8:58 pm 20:58 Sunny 80 26.5 55 12.6 42 42 SE 9 15 30.02 1017 10 16.0934 0 0
9:58 pm 21:58 Sunny 80 26.8 53 11.8 39 39 E 9 15 30 1016 10 16.0934 0 0
10:58 pm 22:58 Sunny 78 25.5 55 12.6 45 45 SE 8 13 29.98 1015 10 16.0934 0 0
11:58 pm 23:58 Sunny 74 23.6 59 15.2 59 59 E 12 19 30 1016 10 16.0934 0 0

Powered by AerisWeather